SCP
0 0 0 0 0 0 0 0 0 0 0 0 0 0 0 0 0 0 0 0 0 0 0 0 0 0 0 0 0 0 0 0 0 0 0 0 0 0 0 0 0 0 0
0 0 0 0 0 0 0 0 0 0 0 0 0 0 0 0 0 0 0 0 0 0 0 0 0 0 0 0 0 0 0 0 0 0 0 0 0 0 0 0 0 0 0
0 0 0 0 0 0 0 0 0 0 0 0 0 0 0 0 0 0 0 0 0 0 0 0 0 0 0 0 0 0 0 0 0 0 0 0 0 0 0 0 0 0 0
0 0 0 0 0 0 0 0 0 0 0 0 0 0 0 0 0 0 0 0 0 0 0 0 0 0 0 0 0 0 0 0 0 0 0 0 0 0 0 0 0 0 0
0 0 0 0 0 0 0 0 0 0 0 0 0 0 0 0 0 0 0 0 0 0 0 0 0 0 0 0 0 0 0 0 0 0 0 0 0 0 0 0 0 0 0
0 0 0 0 0 0 0 0 0 0 0 0 0 0 0 0 0 0 0 0 0 0 0 0 0 0 0 0 0 0 0 0 0 0 0 0 0 0 0 0 0 0 0
0 0 0 0 0 0 0 0 0 0 0 0 0 0 0 0 0 0 0 0 0 0 0 0 0 0 0 0 0 0 0 0 0 0 0 0 0 0 0 0 0 0 0
0 0 0 0 0 0 0 0 0 0 0 0 0 0 0 0 0 0 0 0 0 0 0 0 0 0 0 0 0 0 0 0 0 0 0 0 0 0 0 0 0 0 0
0 0 0 0 0 0 0 0 0 0 0 0 0 0 0 0 0 0 0 0 0 0 0 0 0 0 0 0 0 0 0 0 0 0 0 0 0 0 0 0 0 0 0
0 0 0 0 0 0 0 0 0 0 0 0 0 0 0 0 0 0 0 0 0 0 0 0 0 0 0 0 0 0 0 0 0 0 0 0 0 0 0 0 0 0 0
0 0 0 0 0 0 0 0 0 0 0 0 0 0 0 0 0 0 0 0 0 0 0 0 0 0 0 0 0 0 0 0 0 0 0 0 0 0 0 0 0 0 0
0 0 0 0 0 0 0 0 0 0 0 0 0 0 0 0 0 0 0 0 0 0 0 0 0 0 0 0 0 0 0 0 0 0 0 0 0 0 0 0 0 0 0
0 0 0 0 0 0 0 0 0 0 0 0 0 0 0 0 0 0 0 0 0 0 0 0 0 0 0 0 0 0 0 0 0 0 0 0 0 0 0 0 0 0 0
0 0 0 0 0 0 0 0 0 0 0 0 0 0 0 0 0 0 0 0 0 0 0 0 0 0 0 0 0 0 0 0 0 0 0 0 0 0 0 0 0 0 0
0 0 0 0 0 0 0 0 0 0 0 0 0 0 0 0 0 0 0 0 0 0 0 0 0 0 0 0 0 0 0 0 0 0 0 0 0 0 0 0 0 0 0
0 0 0 0 0 0 0 0 0 0 0 0 0 0 0 0 0 0 0 0 0 0 0 0 0 0 0 0 0 0 0 0 0 0 0 0 0 0 0 0 0 0 0
0 0 0 0 0 0 0 0 0 0 0 0 0 0 0 0 0 0 0 0 0 0 0 0 0 0 0 0 0 0 0 0 0 0 0 0 0 0 0 0 0 0 0
0 0 0 0 0 0 0 0 0 0 0 0 0 0 0 0 0 0 0 0 0 0 0 0 0 0 0 0 0 0 0 0 0 0 0 0 0 0 0 0 0 0 0
0 0 0 0 0 0 0 0 0 0 0 0 0 0 0 0 0 0 0 0 0 0 0 0 0 0 0 0 0 0 0 0 0 0 0 0 0 0 0 0 0 0 0
0 0 0 0 0 0 0 0 0 0 0 0 0 0 0 0 0 0 0 0 0 0 0 0 0 0 0 0 0 0 0 0 0 0 0 0 0 0 0 0 0 0 0
0 0 0 0 0 0 0 0 0 0 0 0 0 0 0 0 0 0 0 0 0 0 0 0 0 0 0 0 0 0 0 0 0 0 0 0 0 0 0 0 0 0 0
0 0 0 0 0 0 0 0 0 0 0 0 0 0 0 0 0 0 0 0 0 0 0 0 0 0 0 0 0 0 0 0 0 0 0 0 0 0 0 0 0 0 0
0 0 0 0 0 0 0 0 0 0 0 0 0 0 0 0 0 0 0 0 0 0 0 0 0 0 0 0 0 0 0 0 0 0 0 0 0 0 0 0 0 0 0
0 0 0 0 0 0 0 0 0 0 0 0 0 0 0 0 0 0 0 0 0 0 0 0 0 0 0 0 0 0 0 0 0 0 0 0 0 0 0 0 0 0 0
0 0 0 0 0 0 0 0 0 0 0 0 0 0 0 0 0 0 0 0 0 0 0 0 0 0 0 0 0 0 0 0 0 0 0 0 0 0 0 0 0 0 0
0 0 0 0 0 0 0 0 0 0 0 0 0 0 0 0 0 0 0 0 0 0 0 0 0 0 0 0 0 0 0 0 0 0 0 0 0 0 0 0 0 0 0
Wind_Speed_500mb
42 45 52 57 59 57 52 47 41 39 38 39 38 34 31 31 30 30 30 29 30 30 29 28 29 31 29 30 29 27 26 28 26 24 28 27 24 20 23 24 24 23 25
44 46 52 57 59 59 59 54 47 41 40 40 37 33 32 32 31 32 33 33 32 31 31 29 30 30 31 31 29 22 24 23 21 16 15 12 14 15 17 18 17 18 19
46 45 53 58 58 61 61 57 50 43 40 40 40 37 37 37 38 38 36 35 34 33 33 33 31 31 29 28 27 23 18 15 14 16 5 6 7 14 12 12 14 14 11
41 40 46 57 59 56 57 56 50 44 41 43 44 43 42 42 39 37 37 36 36 35 35 34 33 32 31 28 26 24 20 15 11 12 9 9 9 11 13 8 7 8 7
34 34 34 44 52 50 51 50 48 43 41 43 45 44 42 39 36 37 39 39 39 39 38 37 36 35 33 31 28 26 23 19 14 11 11 10 10 12 11 15 12 6 4
23 25 28 38 46 49 48 45 44 43 42 44 46 45 42 41 41 41 42 42 42 42 41 40 38 37 35 33 31 28 25 21 18 15 14 13 12 14 14 18 17 11 7
14 21 24 32 39 43 43 43 44 44 43 44 48 47 44 43 42 42 42 44 46 46 45 44 42 40 38 36 33 30 27 23 18 15 14 13 12 12 14 18 19 13 11
7 13 16 21 27 33 37 41 43 43 43 45 48 47 46 46 45 43 41 43 44 43 44 44 44 42 40 38 35 32 28 24 20 16 15 13 13 14 14 14 14 12 11
14 7 9 16 21 25 29 33 37 39 42 42 46 48 48 49 49 45 42 42 42 44 45 45 45 43 42 40 37 34 29 25 21 19 17 16 16 14 13 12 11 9 7
12 8 5 5 13 21 27 32 34 38 35 39 43 47 48 49 49 48 47 46 45 47 47 47 46 44 43 41 38 34 30 26 24 22 20 19 17 15 13 11 10 9 8
9 5 3 8 12 17 24 30 37 40 41 42 44 48 49 51 52 53 51 49 49 48 48 48 47 45 42 40 37 35 31 28 26 24 22 21 19 17 15 14 13 13 14
6 8 10 12 16 21 23 26 32 37 40 44 51 51 51 53 56 56 55 56 54 50 49 48 47 46 44 40 37 34 31 29 26 25 23 22 20 20 19 17 18 19 21
12 12 14 16 18 22 25 27 28 29 32 37 44 47 49 52 53 53 54 56 56 53 49 46 45 47 44 41 40 35 33 30 30 28 26 24 24 23 22 21 21 22 24
6 6 11 15 18 22 25 28 29 31 32 35 38 41 44 46 48 51 56 58 57 55 51 51 49 48 44 45 40 39 34 34 30 29 28 27 26 24 23 22 21 20 21
3 4 7 11 14 19 24 27 29 30 34 37 40 41 41 43 47 52 57 59 60 62 64 62 56 53 52 53 51 39 39 34 34 32 30 28 26 24 23 21 19 19 20
3 10 15 18 21 22 26 30 33 37 39 40 42 41 43 48 53 57 60 64 71 69 61 58 62 65 67 54 39 42 38 39 36 32 30 27 25 23 21 20 20 19 20
8 13 22 28 31 34 33 32 40 43 44 48 46 50 53 52 56 60 64 67 67 64 63 65 66 65 59 49 39 36 36 34 33 32 30 27 25 23 19 18 17 16 17
16 21 32 38 38 38 39 39 39 45 47 53 54 57 61 53 58 64 65 66 64 65 64 62 59 55 49 38 32 36 34 33 32 31 29 28 25 22 20 19 17 16 16
25 31 36 40 42 45 45 39 41 39 44 51 58 61 58 57 57 58 59 59 57 56 55 55 55 50 41 35 34 37 39 35 31 29 26 25 23 21 18 17 16 16 15
30 36 38 40 42 42 40 44 46 46 48 50 55 57 57 58 58 57 55 54 52 50 47 42 34 24 28 37 39 36 33 31 29 28 27 26 24 22 20 17 18 19 16
37 39 43 49 48 43 45 50 53 56 45 48 51 53 53 52 50 49 48 46 44 38 30 28 31 37 39 39 39 35 32 31 30 29 29 28 25 24 22 20 20 19 11
42 41 47 48 45 40 46 50 57 50 45 45 48 47 46 47 47 47 46 41 32 31 36 39 40 41 40 39 39 36 33 30 31 31 29 28 26 24 21 19 17 13 21
43 42 43 47 45 37 44 55 54 51 50 49 49 49 49 50 49 48 40 37 36 35 40 42 40 40 40 39 39 40 36 35 32 30 28 25 23 21 22 22 20 23 27
39 40 39 39 41 41 43 51 55 50 51 53 54 53 51 49 45 40 37 35 35 38 41 44 43 40 41 40 40 41 39 36 31 29 26 25 25 24 24 24 24 26 28
32 34 36 34 37 39 40 39 41 48 50 52 55 53 50 46 40 35 32 33 37 41 44 43 40 41 42 41 39 39 41 44 44 38 29 30 27 27 26 26 24 23 24
32 31 32 34 30 31 31 31 33 41 43 47 50 49 46 42 37 37 39 41 42 43 43 41 42 40 37 36 38 38 40 43 43 43 40 33 30 27 25 23 23 24 26
Wind_Direction_500mb
220 216 215 215 216 220 222 223 224 223 223 217 210 205 202 197 192 187 185 182 178 174 171 167 161 153 153 149 148 144 138 129 121 115 105 97 87 80 76 72 72 71 67
221 217 212 213 215 218 219 222 224 230 231 225 219 215 208 203 201 196 191 188 185 182 179 177 169 161 164 160 158 160 153 148 142 134 118 108 92 92 81 75 74 73 69
213 210 211 212 212 216 219 220 225 232 234 224 217 213 211 209 206 202 199 195 190 189 186 186 183 174 169 169 166 168 176 178 174 174 186 164 171 145 111 87 77 78 80
207 209 211 211 213 216 217 221 226 232 231 226 221 220 219 216 214 212 207 204 199 196 194 193 192 190 185 183 179 176 176 180 187 181 204 224 215 185 170 145 106 89 94
201 205 215 216 214 214 216 220 225 230 230 228 225 225 225 227 225 220 216 212 209 203 202 200 199 198 197 195 196 197 197 199 206 211 203 198 202 201 187 181 175 159 133
192 203 212 213 214 212 215 221 225 227 229 230 229 230 231 231 226 224 222 218 216 213 209 207 205 205 206 206 208 208 208 213 215 219 220 221 219 205 193 178 177 200 205
184 201 211 213 214 218 220 222 223 227 230 233 232 232 234 235 236 236 233 228 223 221 218 215 214 213 214 214 215 217 217 219 224 227 227 224 218 200 187 183 185 195 217
156 202 208 215 222 226 229 229 229 232 234 237 234 234 237 236 236 238 240 240 236 231 226 222 220 219 220 221 222 222 223 225 228 233 231 224 211 197 189 188 192 192 214
81 118 196 218 228 232 238 241 240 241 241 242 239 238 240 239 237 239 242 243 239 233 230 227 224 222 223 224 224 225 227 228 229 229 228 222 215 210 209 207 204 207 225
84 99 125 208 237 242 245 244 244 244 249 248 243 243 244 242 239 241 244 240 235 233 232 229 226 224 222 221 222 223 225 228 230 229 226 226 226 225 226 229 241 253 259
76 91 197 230 233 237 244 248 245 245 247 247 246 245 245 243 242 246 242 238 235 235 233 230 227 225 221 220 220 220 224 228 229 226 226 229 232 237 242 251 261 272 282
323 299 287 269 252 251 255 257 256 255 253 247 244 246 247 246 248 245 239 236 235 236 233 228 226 225 222 221 224 227 227 229 228 228 228 233 238 243 248 254 265 278 290
295 280 281 281 273 265 260 262 268 268 263 256 252 253 254 253 249 244 238 233 236 234 228 225 226 222 221 222 222 228 230 232 232 231 232 235 241 247 254 263 273 284 293
339 303 281 282 281 278 273 270 272 276 271 263 262 263 263 259 253 247 240 237 235 227 222 225 220 220 220 220 217 227 229 231 232 237 238 239 244 251 260 268 274 280 287
329 359 357 339 314 290 272 270 269 268 266 266 264 267 266 265 256 246 239 234 227 222 225 226 222 217 217 217 225 223 224 231 236 237 237 240 245 252 258 264 271 278 281
353 356 358 345 333 315 292 272 264 268 267 265 262 260 260 259 249 238 233 223 221 228 227 219 216 215 217 223 210 221 230 228 230 235 239 241 246 252 257 261 266 269 277
325 337 334 325 316 311 299 280 261 255 260 261 262 262 258 260 251 239 231 226 231 227 222 219 220 222 228 221 207 218 230 231 234 236 237 240 242 247 249 251 261 277 285
328 315 315 313 308 300 294 289 274 257 257 257 256 257 251 251 253 238 233 230 230 226 224 224 227 223 210 202 213 223 227 229 231 233 233 235 237 238 241 246 252 259 265
313 308 309 310 309 304 303 293 282 268 257 257 253 247 242 245 241 239 237 235 232 228 226 221 215 209 202 207 215 226 225 226 228 229 230 231 232 234 237 243 248 249 260
305 303 300 298 302 311 299 284 285 268 256 257 255 251 250 249 245 240 233 228 223 220 213 204 200 207 216 217 225 228 221 224 226 228 229 230 229 228 231 238 248 263 276
305 300 294 291 292 295 302 286 278 273 261 254 256 253 249 243 237 229 220 214 207 202 204 211 221 223 221 219 219 228 221 221 223 224 225 227 231 232 234 236 247 260 281
307 302 298 295 296 292 284 287 282 282 270 257 252 245 234 225 218 213 211 208 207 220 225 225 224 224 223 220 217 212 230 222 223 223 226 227 229 233 233 225 227 227 246
316 312 306 299 294 292 290 287 291 283 268 257 244 233 226 220 217 217 216 218 221 227 231 230 230 229 228 225 222 222 216 230 224 220 221 222 220 204 211 226 233 235 253
318 316 315 310 302 295 287 290 285 281 266 255 240 231 226 222 220 220 223 228 230 232 236 237 234 232 231 230 227 223 217 215 222 225 219 212 208 218 228 233 241 251 260
322 321 317 315 310 302 296 292 283 272 269 251 237 230 224 221 221 226 235 242 243 241 240 241 238 235 234 232 229 224 218 210 215 220 219 216 222 221 234 249 257 261 261
331 328 324 318 318 314 311 298 276 258 248 238 229 226 223 222 224 228 233 238 238 238 239 237 237 236 233 228 225 223 220 217 215 221 221 223 227 237 250 251 259 264 264
Wind_Speed_850mb
42 45 52 57 59 57 52 47 41 39 38 39 38 34 31 31 30 30 30 29 30 30 29 28 29 31 29 30 29 27 26 28 26 24 28 27 24 20 23 24 24 23 25
44 46 52 57 59 59 59 54 47 41 40 40 37 33 32 32 31 32 33 33 32 31 31 29 30 30 31 31 29 22 24 23 21 16 15 12 14 15 17 18 17 18 19
46 45 53 58 58 61 61 57 50 43 40 40 40 37 37 37 38 38 36 35 34 33 33 33 31 31 29 28 27 23 18 15 14 16 5 6 7 14 12 12 14 14 11
41 40 46 57 59 56 57 56 50 44 41 43 44 43 42 42 39 37 37 36 36 35 35 34 33 32 31 28 26 24 20 15 11 12 9 9 9 11 13 8 7 8 7
34 34 34 44 52 50 51 50 48 43 41 43 45 44 42 39 36 37 39 39 39 39 38 37 36 35 33 31 28 26 23 19 14 11 11 10 10 12 11 15 12 6 4
23 25 28 38 46 49 48 45 44 43 42 44 46 45 42 41 41 41 42 42 42 42 41 40 38 37 35 33 31 28 25 21 18 15 14 13 12 14 14 18 17 11 7
14 21 24 32 39 43 43 43 44 44 43 44 48 47 44 43 42 42 42 44 46 46 45 44 42 40 38 36 33 30 27 23 18 15 14 13 12 12 14 18 19 13 11
7 13 16 21 27 33 37 41 43 43 43 45 48 47 46 46 45 43 41 43 44 43 44 44 44 42 40 38 35 32 28 24 20 16 15 13 13 14 14 14 14 12 11
14 7 9 16 21 25 29 33 37 39 42 42 46 48 48 49 49 45 42 42 42 44 45 45 45 43 42 40 37 34 29 25 21 19 17 16 16 14 13 12 11 9 7
12 8 5 5 13 21 27 32 34 38 35 39 43 47 48 49 49 48 47 46 45 47 47 47 46 44 43 41 38 34 30 26 24 22 20 19 17 15 13 11 10 9 8
9 5 3 8 12 17 24 30 37 40 41 42 44 48 49 51 52 53 51 49 49 48 48 48 47 45 42 40 37 35 31 28 26 24 22 21 19 17 15 14 13 13 14
6 8 10 12 16 21 23 26 32 37 40 44 51 51 51 53 56 56 55 56 54 50 49 48 47 46 44 40 37 34 31 29 26 25 23 22 20 20 19 17 18 19 21
12 12 14 16 18 22 25 27 28 29 32 37 44 47 49 52 53 53 54 56 56 53 49 46 45 47 44 41 40 35 33 30 30 28 26 24 24 23 22 21 21 22 24
6 6 11 15 18 22 25 28 29 31 32 35 38 41 44 46 48 51 56 58 57 55 51 51 49 48 44 45 40 39 34 34 30 29 28 27 26 24 23 22 21 20 21
3 4 7 11 14 19 24 27 29 30 34 37 40 41 41 43 47 52 57 59 60 62 64 62 56 53 52 53 51 39 39 34 34 32 30 28 26 24 23 21 19 19 20
3 10 15 18 21 22 26 30 33 37 39 40 42 41 43 48 53 57 60 64 71 69 61 58 62 65 67 54 39 42 38 39 36 32 30 27 25 23 21 20 20 19 20
8 13 22 28 31 34 33 32 40 43 44 48 46 50 53 52 56 60 64 67 67 64 63 65 66 65 59 49 39 36 36 34 33 32 30 27 25 23 19 18 17 16 17
16 21 32 38 38 38 39 39 39 45 47 53 54 57 61 53 58 64 65 66 64 65 64 62 59 55 49 38 32 36 34 33 32 31 29 28 25 22 20 19 17 16 16
25 31 36 40 42 45 45 39 41 39 44 51 58 61 58 57 57 58 59 59 57 56 55 55 55 50 41 35 34 37 39 35 31 29 26 25 23 21 18 17 16 16 15
30 36 38 40 42 42 40 44 46 46 48 50 55 57 57 58 58 57 55 54 52 50 47 42 34 24 28 37 39 36 33 31 29 28 27 26 24 22 20 17 18 19 16
37 39 43 49 48 43 45 50 53 56 45 48 51 53 53 52 50 49 48 46 44 38 30 28 31 37 39 39 39 35 32 31 30 29 29 28 25 24 22 20 20 19 11
42 41 47 48 45 40 46 50 57 50 45 45 48 47 46 47 47 47 46 41 32 31 36 39 40 41 40 39 39 36 33 30 31 31 29 28 26 24 21 19 17 13 21
43 42 43 47 45 37 44 55 54 51 50 49 49 49 49 50 49 48 40 37 36 35 40 42 40 40 40 39 39 40 36 35 32 30 28 25 23 21 22 22 20 23 27
39 40 39 39 41 41 43 51 55 50 51 53 54 53 51 49 45 40 37 35 35 38 41 44 43 40 41 40 40 41 39 36 31 29 26 25 25 24 24 24 24 26 28
32 34 36 34 37 39 40 39 41 48 50 52 55 53 50 46 40 35 32 33 37 41 44 43 40 41 42 41 39 39 41 44 44 38 29 30 27 27 26 26 24 23 24
32 31 32 34 30 31 31 31 33 41 43 47 50 49 46 42 37 37 39 41 42 43 43 41 42 40 37 36 38 38 40 43 43 43 40 33 30 27 25 23 23 24 26
Wind_Direction_850mb
220 216 215 215 216 220 222 223 224 223 223 217 210 205 202 197 192 187 185 182 178 174 171 167 161 153 153 149 148 144 138 129 121 115 105 97 87 80 76 72 72 71 67
221 217 212 213 215 218 219 222 224 230 231 225 219 215 208 203 201 196 191 188 185 182 179 177 169 161 164 160 158 160 153 148 142 134 118 108 92 92 81 75 74 73 69
213 210 211 212 212 216 219 220 225 232 234 224 217 213 211 209 206 202 199 195 190 189 186 186 183 174 169 169 166 168 176 178 174 174 186 164 171 145 111 87 77 78 80
207 209 211 211 213 216 217 221 226 232 231 226 221 220 219 216 214 212 207 204 199 196 194 193 192 190 185 183 179 176 176 180 187 181 204 224 215 185 170 145 106 89 94
201 205 215 216 214 214 216 220 225 230 230 228 225 225 225 227 225 220 216 212 209 203 202 200 199 198 197 195 196 197 197 199 206 211 203 198 202 201 187 181 175 159 133
192 203 212 213 214 212 215 221 225 227 229 230 229 230 231 231 226 224 222 218 216 213 209 207 205 205 206 206 208 208 208 213 215 219 220 221 219 205 193 178 177 200 205
184 201 211 213 214 218 220 222 223 227 230 233 232 232 234 235 236 236 233 228 223 221 218 215 214 213 214 214 215 217 217 219 224 227 227 224 218 200 187 183 185 195 217
156 202 208 215 222 226 229 229 229 232 234 237 234 234 237 236 236 238 240 240 236 231 226 222 220 219 220 221 222 222 223 225 228 233 231 224 211 197 189 188 192 192 214
81 118 196 218 228 232 238 241 240 241 241 242 239 238 240 239 237 239 242 243 239 233 230 227 224 222 223 224 224 225 227 228 229 229 228 222 215 210 209 207 204 207 225
84 99 125 208 237 242 245 244 244 244 249 248 243 243 244 242 239 241 244 240 235 233 232 229 226 224 222 221 222 223 225 228 230 229 226 226 226 225 226 229 241 253 259
76 91 197 230 233 237 244 248 245 245 247 247 246 245 245 243 242 246 242 238 235 235 233 230 227 225 221 220 220 220 224 228 229 226 226 229 232 237 242 251 261 272 282
323 299 287 269 252 251 255 257 256 255 253 247 244 246 247 246 248 245 239 236 235 236 233 228 226 225 222 221 224 227 227 229 228 228 228 233 238 243 248 254 265 278 290
295 280 281 281 273 265 260 262 268 268 263 256 252 253 254 253 249 244 238 233 236 234 228 225 226 222 221 222 222 228 230 232 232 231 232 235 241 247 254 263 273 284 293
339 303 281 282 281 278 273 270 272 276 271 263 262 263 263 259 253 247 240 237 235 227 222 225 220 220 220 220 217 227 229 231 232 237 238 239 244 251 260 268 274 280 287
329 359 357 339 314 290 272 270 269 268 266 266 264 267 266 265 256 246 239 234 227 222 225 226 222 217 217 217 225 223 224 231 236 237 237 240 245 252 258 264 271 278 281
353 356 358 345 333 315 292 272 264 268 267 265 262 260 260 259 249 238 233 223 221 228 227 219 216 215 217 223 210 221 230 228 230 235 239 241 246 252 257 261 266 269 277
325 337 334 325 316 311 299 280 261 255 260 261 262 262 258 260 251 239 231 226 231 227 222 219 220 222 228 221 207 218 230 231 234 236 237 240 242 247 249 251 261 277 285
328 315 315 313 308 300 294 289 274 257 257 257 256 257 251 251 253 238 233 230 230 226 224 224 227 223 210 202 213 223 227 229 231 233 233 235 237 238 241 246 252 259 265
313 308 309 310 309 304 303 293 282 268 257 257 253 247 242 245 241 239 237 235 232 228 226 221 215 209 202 207 215 226 225 226 228 229 230 231 232 234 237 243 248 249 260
305 303 300 298 302 311 299 284 285 268 256 257 255 251 250 249 245 240 233 228 223 220 213 204 200 207 216 217 225 228 221 224 226 228 229 230 229 228 231 238 248 263 276
305 300 294 291 292 295 302 286 278 273 261 254 256 253 249 243 237 229 220 214 207 202 204 211 221 223 221 219 219 228 221 221 223 224 225 227 231 232 234 236 247 260 281
307 302 298 295 296 292 284 287 282 282 270 257 252 245 234 225 218 213 211 208 207 220 225 225 224 224 223 220 217 212 230 222 223 223 226 227 229 233 233 225 227 227 246
316 312 306 299 294 292 290 287 291 283 268 257 244 233 226 220 217 217 216 218 221 227 231 230 230 229 228 225 222 222 216 230 224 220 221 222 220 204 211 226 233 235 253
318 316 315 310 302 295 287 290 285 281 266 255 240 231 226 222 220 220 223 228 230 232 236 237 234 232 231 230 227 223 217 215 222 225 219 212 208 218 228 233 241 251 260
322 321 317 315 310 302 296 292 283 272 269 251 237 230 224 221 221 226 235 242 243 241 240 241 238 235 234 232 229 224 218 210 215 220 219 216 222 221 234 249 257 261 261
331 328 324 318 318 314 311 298 276 258 248 238 229 226 223 222 224 228 233 238 238 238 239 237 237 236 233 228 225 223 220 217 215 221 221 223 227 237 250 251 259 264 264